Regional Weather Roundup
Issued by NWS

Home | Current Version | Previous Version | Graphics & Text | Print | Product List | Glossary On
Versions: 1 2 3 4 5 6 7 8 9 10 11 12 13 14 15 16 17 18 19 20 21 22 23 24 25 26 27 28 29 30 31 32 33 34 35 36 37 38 39 40 41 42 43 44 45 46 47 48 49 50
000
ASUS43 KMKX 311011
RWRWI

WISCONSIN REGIONAL WEATHER ROUNDUP
NATIONAL WEATHER SERVICE MILWAUKEE/SULLIVAN WI
500 AM CDT FRI JUL 31 2015

NOTE: "FAIR" INDICATES FEW OR NO CLOUDS BELOW 12,000 FEET WITH NO
SIGNIFICANT WEATHER AND/OR OBSTRUCTIONS TO VISIBILITY.

WIZ001-002-006>008-014>016-023>028-311100-
NORTHWEST WISCONSIN

CITY           SKY/WX    TMP DP  RH WIND       PRES   REMARKS
SUPERIOR ARPT  CLEAR     64  54  71 W12       29.93R
ASHLAND        PTCLDY    57  55  93 SW7       29.90F
HAYWARD        PTCLDY    64  54  69 VRB5      29.96R
SIREN          CLEAR     62  54  75 W7        29.99R
CUMBERLAND     CLEAR     61  54  77 W8        29.99S
RICE LAKE      CLEAR     60  55  84 W6        30.00S
CHETEK         CLEAR     65  56  73 W7        29.98S
LADYSMITH      CLEAR     63  57  79 W7        29.98R
EAU CLAIRE     CLEAR     62  57  83 W8        29.98R
MENOMONIE      CLEAR     66  57  71 W10       30.00S
NEW RICHMOND   CLEAR     61  54  76 W8        30.02S
OSCEOLA        CLEAR     64  55  75 W8        30.04S
$$

WIZ003>005-009-010-017-018-311100-
NORTH CENTRAL WISCONSIN

CITY           SKY/WX    TMP DP  RH WIND       PRES   REMARKS
MANITOWISH WTR CLOUDY    60  56  89 W5        29.91F
ARBOR VITAE    CLOUDY    63  56  79 W3        29.92F
WOODRUFF       CLOUDY    63  56  79 W3        29.92F
RHINELANDER    CLOUDY    61  56  83 W9        29.94S
EAGLE RIVER    MOCLDY    56  55  95 W7        29.91F
LAND O LAKES   PTCLDY    58  55  89 W3        29.91F
PHILLIPS       CLEAR     59  56  88 CALM      29.94S
TOMAHAWK       MOCLDY    60  55  85 W5        29.94F
MEDFORD        CLEAR     59  56  88 W5        29.96S
MERRILL        NOT AVBL
$$

WIZ029-030-035-036-043>047-311100-
CENTRAL WISCONSIN

CITY           SKY/WX    TMP DP  RH WIND       PRES   REMARKS
WAUSAU         CLEAR     65  57  75 NW12      29.93F
MOSINEE        CLEAR     61  57  88 SW8       29.97S
MARSHFIELD     CLEAR     62  55  77 W7        29.97F
STEVENS POINT  CLEAR     63  56  80 W6        29.97S
WAUPACA        CLEAR     66  59  79 W6        29.96S
WAUTOMA        CLEAR     58  58 100 CALM      29.98S
WISC RAPIDS    CLEAR     62  57  83 W7        29.99S
CAMP DOUGLAS   CLEAR     62  62 100 W6        29.99S
$$

WIZ011>013-019>022-031-037>040-048>050-311100-
NORTHEAST WISCONSIN

CITY           SKY/WX    TMP DP  RH WIND       PRES   REMARKS
ANTIGO         CLEAR     56  55  95 CALM      29.95S
SHAWANO        CLEAR     65  57  75 W6        29.93S
OCONTO         CLEAR     63  59  87 W7        29.90S
STURGEON BAY   MOCLDY    64  55  72 W7        29.92S
GREEN BAY      CLEAR     65  58  78 W9        29.93S
MANITOWOC      CLEAR     67  60  78 MISG      29.94S
APPLETON       CLEAR     63  55  77 W7        29.95F
CLINTONVILLE   CLEAR     63  55  77 W7        29.93S
OSHKOSH        CLEAR     68  57  68 W7        29.95F
$$

WIZ032>034-041-042-053>061-311100-
SOUTHWEST WISCONSIN

CITY           SKY/WX    TMP DP  RH WIND       PRES   REMARKS
LA CROSSE      CLEAR     65  61  87 E3        30.01R
SPARTA         CLEAR     55  53  92 CALM      30.01S
VIROQUA        CLEAR     61  60  98 W6        30.04S
BOSCOBEL       PTCLDY    61  59  93 CALM      30.03R
PRAIRIE DU CHI CLEAR     68  62  79 W8        30.03R
PLATTEVILLE    MOCLDY    65  64  94 N13       30.04R
$$

WIZ056-057-062-063-064-067-068-311100-
SOUTH CENTRAL WISCONSIN

CITY           SKY/WX    TMP DP  RH WIND       PRES   REMARKS
REEDSBURG      CLEAR     60  58  92 CALM      30.00S
BARABOO/DELLS  CLEAR     64  56  75 SW3       30.00S
LONE ROCK      PTCLDY    59  57  93 W3        30.02S
MINERAL POINT  MOCLDY    66  61  82 W7        30.04R
MADISON        PTCLDY    68  57  68 CALM      29.99F
MIDDLETON      CLEAR     64  58  81 W5        30.01S
WATERTOWN      CLEAR     63  62  96 CALM      29.99S
MONROE         PTCLDY    66  59  77 SW10      30.01F
JANESVILLE     CLEAR     63  59  88 CALM      30.00F
$$

WIZ051-052-058>065-066-070>072-311100-
SOUTHEAST WISCONSIN

CITY           SKY/WX    TMP DP  RH WIND       PRES   REMARKS
MILWAUKEE      CLEAR     70  56  61 W3        29.98F
WAUKESHA       CLEAR     64  54  68 SW5       30.00F
MILWAUKEE/TIMM CLEAR     64  54  68 W5        29.99F
RACINE         CLEAR     67  56  67 W7        30.00F
BURLINGTON     CLEAR     59  55  87 S3        30.00F
KENOSHA        CLEAR     63  57  81 W5        30.00F
FOND DU LAC    PTCLDY    64  57  78 SW8       29.97S
SHEBOYGAN      CLEAR     62  57  83 SW7       29.95F
WEST BEND      CLEAR     64  54  68 SW3       29.98S
JUNEAU         PTCLDY    59  56  91 SW3       30.00S
$$

LSZ147-162-311100-
LAKE SUPERIOR

STATION/POSITION TIME  TEMP    WIND        PRES    WAVE
                       AIR SEA DIR/SP/G            HT/PER
                 (UTC) (F)     (DEG/KT/KT) (MB)    (FT/S)
W MID LAKE BUOY  0950   57 52  250/ 14/ 14 1010.3R   1/ 3
DEVILS ISLAND    1000   60     250/ 15/ 17 1011.7R
PORT WING        0900   66     210/  5/  9 1012.9
SAXON HARBOR     0940   64                 1011.5F
$$

LMZ867-665-643>646-311100-
LAKE MICHIGAN

STATION/POSITION TIME  TEMP    WIND        PRES    WAVE
                       AIR SEA DIR/SP/G            HT/PER
                 (UTC) (F)     (DEG/KT/KT) (MB)    (FT/S)
CHAMBERS ISLAND  0900   66     220/  7/ 12 1011.5F
S GREEN BAY BUOY 1000   65 66  260/ 10/ 12 1013.8R
N MID LAKE BUOY  0950   69 68  260/ 12/ 16 1010.4F   2/ 4
NORTHPORT PIER   1000   68     270/  5/ 22 1011.2F
SISTER BAY       0914   69     290/ 18/ 20   N/A
ALGOMA LAKESHORE 0942          280/  2/  6   N/A
KEWAUNEE LAKESHO 0900   68     290/  3/  8 1012.4S
SHEBOYGAN LAKESH 1000   68     250/ 10/ 12 1014.2R
PORT WASHINGTON  0800   70     270/  7/  9 1015.6S
ATWATER BUOY     1000   69 62  250/ 10/ 12 1016.3F
MILWAUKEE LAKESH 0900   73     270/  9/ 12   N/A
KENOSHA   LAKESH 1000   71     260/  8/ 12 1015.2F
$$

TC  - TEMPERATURE IN CELSIUS
VSB - VISIBILITY IN STATUTE MILES
WCI - WIND CHILL INDEX
HX  - HEAT INDEX




USA.gov is the U.S. government's official web portal to all federal, state and local government web resources and services.